Location: Bodest
(46.3000°N, 22.5667°E)
Time: 11:05:54
(UTC+00:00)

CENTAUR R/B - Pass Details

Date: 16 October 2021
Orbit: 728 x 1459 km, 63.4° (Epoch: 26 November)

Event Time Altitude Azimuth Distance (km) Brightness Sun altitude
Rises 18:56:04 0° 310° (NW) 3,895 6.6 -33.8°
Reaches altitude 10° 18:59:14 10° 324° (NW) 3,061 5.7 -34.3°
Maximum altitude 19:05:09 24° 16° (NNE) 2,355 4.5 -35.2°
Enters shadow 19:06:07 24° 27° (NNE) 2,407 4.5 -35.3°
